Regional Weather Roundup
Issued by NWS

Home | Current Version | Previous Version | Graphics & Text | Print | Product List | Glossary On
Versions: 1 2 3 4 5 6 7 8 9 10 11 12 13 14 15 16 17 18 19 20 21 22 23 24 25 26 27 28 29 30 31 32 33 34 35 36 37 38 39 40 41 42 43 44 45 46 47 48 49 50
442
ASUS43 KMPX 210410
RWRMN
WEATHER ROUNDUP FOR MINNESOTA
NATIONAL WEATHER SERVICE TWIN CITIES/CHANHASSEN MN
1000 PM CST FRI JAN 20 2017


NOTE: "FAIR" INDICATES FEW OR NO CLOUDS BELOW 12,000 FEET WITH NO
SIGNIFICANT WEATHER AND/OR OBSTRUCTIONS TO VISIBILITY. N/A MEANS
CURRENT SKY AND/OR WEATHER CONDITIONS ARE NOT AVAILABLE.

MNZ060>063-068>070-210500-
   Twin Cities Metro

CITY           SKY/WX    TMP DP  RH WIND       PRES   REMARKS
TWIN CITIES    CLOUDY    35  33  92 SE8       29.55F FOG     WCI  29
ST PAUL        CLOUDY    35  35 100 E6        29.57F FOG     WCI  30
CRYSTAL        CLOUDY    36  33  89 SE7       29.54F FOG
BLAINE         CLOUDY    37  37 100 SE7       29.55F FOG
LAKEVILLE      FOG       34  34 100 E5        29.54F VSB 3/4 WCI  30
EDEN PRAIRIE   CLOUDY    36  34  92 E5        29.53F FOG
SOUTH ST PAUL  CLOUDY    36  35  99 CALM      29.55F FOG
LAKE ELMO      FOG       36  36 100 SE3       29.57F VSB 1/2
$$
MNZ001>005-007-008-013>017-022>024-027-028-210500-
   Northwest Minnesota

CITY           SKY/WX    TMP DP  RH WIND       PRES   REMARKS
BEMIDJI        CLOUDY    33  33 100 SE7       29.49F FOG     WCI  27
HALLOCK        CLOUDY    36  36 100 SE12      29.45F FOG
ROSEAU         CLOUDY    36  30  80 SE8       29.49S
WARROAD        CLOUDY    34  30  86 SE6       29.50S WCI  29
THIEF RVR FALL CLOUDY    34  33  96 SE13      29.47S WCI  25
CROOKSTON      CLOUDY    36  34  93 SE12      29.46S
FOSSTON        CLOUDY    34  32  93 E10G16    29.47F WCI  26
DETROIT LAKES  CLOUDY    34  34 100 SE14      29.46F FOG     WCI  24
MOORHEAD       CLOUDY    36  34  93 SE9       29.43F
PARK RAPIDS    CLOUDY    34  32  92 SE12      29.48F FOG     WCI  25
MAHNOMEN       CLOUDY    34  33  96 SE10      29.45S WCI  26
$$
MNZ006-009>011-018-025>026-210500-
   North Central Minnesota

CITY           SKY/WX    TMP DP  RH WIND       PRES   REMARKS
BAUDETTE       LGT RAIN  34  33  96 SE9       29.51S WCI  27
FLAG ISLAND    LGT RAIN  34  34 100 SE8       29.51S WCI  27
INTL FALLS     LGT RAIN  34  32  92 SE7       29.55S WCI  28
WASKISH        CLOUDY    36  34  93 SE7       29.51S
BIG FORK       CLOUDY    36  34  93 SE5       29.53F
LONGVILLE      CLOUDY    34  34 100 CALM      29.51F FOG
GRAND RAPIDS   CLOUDY    34  33  96 SE6       29.55S FOG     WCI  29
CRANE LAKE     DRIZZLE   34  34 100 CALM      29.59S
ORR            LGT SNOW  32  30  93 CALM      29.54S
COOK           LGT SNOW  34  32  93 CALM      29.56F
WALKER         CLOUDY    33  33  99 SE3       29.50F FOG
$$
MNZ012-019>021-037-210500-
   Northeast Minnesota

CITY           SKY/WX    TMP DP  RH WIND       PRES   REMARKS
DULUTH         FOG       34  34 100 SE12      29.55F VSB 1/8 WCI  25
ELY            LGT RAIN  34  34 100 SE5       29.57F WCI  30
HIBBING        CLOUDY    32  32 100 SE8       29.55F FOG     WCI  25
EVELETH        FLURRIES  32  32  99 E3        29.56F
DULUTH HARBOR  CLOUDY    34  32  93 E5        29.59F FOG     WCI  30
TWO HARBORS    HAZE      37  34  87 E7        29.56F VSB 1/2
SILVER BAY     RAIN      36  36 100 E6        29.57F VSB 1/4
GRAND MARAIS     N/A     35  34  96 NE5       29.64F WCI  31
G MARAIS ARPRT LGT RAIN  30  28  93 CALM      29.60F
$$
MNZ029>031-032-039>041-046>048-054>057-064-210500-
   West Central Minnesota

CITY           SKY/WX    TMP DP  RH WIND       PRES   REMARKS
FERGUS FALLS   CLOUDY    36  36 100 SE13      29.48F
WHEATON        CLOUDY    43  43 100 SE14      29.44F FOG
MORRIS         CLOUDY    34  34 100 SE14      29.44F FOG     WCI  24
ALEXANDRIA     CLOUDY    34  34 100 SE10      29.48S FOG     WCI  26
ELBOW LAKE     CLOUDY    34  34 100 E14       29.45S FOG     WCI  24
WADENA         DRIZZLE   34  34 100 SE8       29.48F WCI  27
GLENWOOD       MIX PCPN  34  34 100 SE9       29.48F VSB 3/4 WCI  26
APPLETON       CLOUDY    36  34  93 SE10      29.45F FOG
BENSON         CLOUDY    37  34  87 S13       29.48F
ORTONVILLE     CLOUDY    34  32  93 SE16      29.42F FOG     WCI  23
MADISON        CLOUDY    37  37 100 SE13      29.44F FOG
WILLMAR        CLOUDY    36  36 100 SE10      29.49F FOG
$$
MNZ033>034-036-042>043-049>051-058-059-210500-
   Central Minnesota

CITY           SKY/WX    TMP DP  RH WIND       PRES   REMARKS
ST CLOUD       FOG       34  34 100 SE7       29.53F VSB 1/2 WCI  28
SAUK CENTRE    LGT RAIN  33  33 100 SE8       29.50S VSB 1   WCI  26
PAYNESVILLE    DRZL/FOG  34  34 100 SE10      29.51F VSB 1   WCI  26
AITKIN         CLOUDY    37  34  87 SE3       29.53R FOG
PINE RIVER     CLOUDY    34  34 100 SE7       29.56S FOG     WCI  28
BRAINERD       CLOUDY    33  33 100 SE7       29.52F FOG     WCI  27
STAPLES        CLOUDY    34  34 100 SE6       29.50F FOG     WCI  29
LONG PRAIRIE   MIX PCPN  32  32 100 E7        29.50F WCI  26
LITTLE FALLS   MIX PCPN  34  32  93 SE7       29.53S WCI  28
LITCHFIELD     DRIZZLE   36  36 100 SE8       29.51F
BUFFALO        FOG       35  33  95 SE5       29.54F VSB 1   WCI  31
MAPLE LAKE     FOG       35  35 100 MISG      29.54F VSB 3/4
HUTCHINSON     FOG       34  35 100 E8        29.52F VSB 1/2 WCI  28
$$
MNZ037-044-045-052-053-210500-
   East Central Minnesota

CITY           SKY/WX    TMP DP  RH WIND       PRES   REMARKS
PRINCETON      FOG       36  34  93 E5        29.55F VSB 1/2
MORA           FOG       34  32  93 SE3       29.57S VSB 3/4
CAMBRIDGE      FOG       37  36  93 SE3       29.54F VSB 3/4
RUSH CITY      CLOUDY    34  34 100 SE6       29.56F FOG     WCI  29
MOOSE LAKE     CLOUDY    34  34 100 SE3       29.55R FOG
HINCKLEY       CLOUDY    34  34 100 CALM      29.57S FOG
CLOQUET        FOG       34  34 100 E6        29.56S VSB 1/4 WCI  29
MCGREGOR       CLOUDY    34  34 100 SE7       29.55R WCI  28
$$
MNZ071>073-080-081-089-090-097-098-210500-
   Southwest Minnesota

CITY           SKY/WX    TMP DP  RH WIND       PRES   REMARKS
MONTEVIDEO     CLOUDY    34  34 100 S10       29.47F FOG     WCI  26
GRANITE FALLS  CLOUDY    36  35  98 E14       29.48F FOG
CANBY          FOG       36  36  99 CALM      29.45F VSB 1
MARSHALL       CLOUDY    35  35 100 SE8       29.45F FOG     WCI  29
REDWOOD FALLS  FOG       34  33  96 SE10      29.48F VSB 3/4 WCI  26
OLIVIA         CLOUDY    34  34 100 SE8       29.48F FOG     WCI  27
PIPESTONE      FOG       37  36  93 S8        29.42S VSB 1/4
WINDOM         CLOUDY    36  36 100 SE8       29.47S FOG
WORTHINGTON    FOG       34  34 100 SE7       29.46S VSB 1/2 WCI  28
JACKSON        FOG       32  32 100 SE8       29.48F VSB 1/2 WCI  25
TRACY          CLOUDY    36  36 100 SE7       29.46F FOG
SLAYTON        FOG       33  33 100 SE9       29.46F VSB 1/2 WCI  26
$$
MNZ065>067-074>077-082>085-091>093-210500-
   South Central Minnesota

CITY           SKY/WX    TMP DP  RH WIND       PRES   REMARKS
MANKATO        CLOUDY   N/A N/A N/A SE12      29.51F FOG
NEW ULM        CLOUDY    34  34 100 SE9       29.50F FOG     WCI  26
ST JAMES       FOG       34  34 100 E8        29.50F VSB 1   WCI  27
FAIRMONT       FOG       34  33  96 SE10      29.50S VSB 1   WCI  26
GLENCOE        FOG       35  35 100 E6        29.51F VSB 3/4 WCI  30
FARIBAULT        N/A     36  34  93 E5        29.54F FOG
OWATONNA       CLOUDY    36  34  93 SE6       29.53F FOG
WASECA         FOG       34  34 100 E8        29.54S VSB 1/2 WCI  27
ALBERT LEA     FOG       36  36 100 SE8       29.52F VSB 1/2
$$
MNZ078>079-086>088-094>096-210500-
   Southeast Minnesota

CITY           SKY/WX    TMP DP  RH WIND       PRES   REMARKS
ROCHESTER      FOG       33  33 100 SE12      29.54F VSB 1/2 WCI  24
RED WING       FOG       36  34  93 SE8       29.56F VSB 3/4
STANTON        CLOUDY    36  34  93 CALM      29.53F FOG
DODGE CENTER   FOG       34  34 100 CALM      29.54S VSB 1/2
WINONA         CLOUDY    36  34  93 SE5       29.60S FOG
AUSTIN         CLOUDY    34  34 100 E7        29.52F FOG     WCI  28
PRESTON        FOG       33  32  97 SE5       29.56F VSB 1/4 WCI  29
$$
ABBREVIATIONS USED IN REMARKS
   TC - TEMPERATURES IN CELSIUS
  WCI - WIND CHILL INDEX
   HX - HEAT INDEX
  VSB - VISIBILITY
$$




USA.gov is the U.S. government's official web portal to all federal, state and local government web resources and services.